Flag for U.S.A. Weather past 2 weeks in Santa Clarita, California, U.S.A.

Now
60 °F

Light rain. More clouds than sun.


Feels Like: 60 °F
Forecast: 49 / 66 °F
Wind: 6 mph from Southwest

Location: Van Nuys Airport

Current Time: Apr 25, 2015 at 4:41:58 PM

Latest Report: Apr 25, 2015 at 3:51 PM


Visibility: 7 mi

Pressure: 29.87 "Hg

Humidity: 80%

Dew point: 54 °F

Location of Santa ClaritaLocation

Historic Weather in Santa Clarita — Graph

°F

Santa Clarita temperature yesterday

Maximum temperature yesterday: 64 °F (at 12:51 PM)
Minimum temperature yesterday: 57 °F (at 12:51 AM)
Average temperature yesterday: 60 °F

Past Weeks' High & Low Weather Summary

 TemperatureHumidityPressure
High84 °F (Apr 17, 1:51 PM)93% (Apr 14, 3:04 AM)30.09 "Hg (Apr 14, 3:04 AM)
Low51 °F (Apr 11, 5:51 AM)7% (Apr 15, 3:51 PM)29.79 "Hg (Apr 20, 4:51 PM)
Average64 °F50%29.93 "Hg
* Reported Apr 10 2:51 PM — Apr 25 2:51 PM, Santa Clarita, Weather by CustomWeather, © 2015

Note: Actual official high and low records may vary slightly from our data, if they occured in-between our weather recording intervals... More about our weather records

Advertising

Santa Clarita weather history for previous 24 hours

 ConditionsComfort  
Time TempWeatherWind HumidityBarometerVisibility
2:51 PM
Sat, Apr 25
61 °FLight rain. Fog.7 mph78%29.89 "Hg4 mi
1:51 PM62 °FMostly cloudy.9 mph65%29.91 "Hg10 mi
12:51 PM62 °FMostly cloudy.6 mph62%29.93 "Hg10 mi
11:51 AM62 °FMore clouds than sun.8 mph60%29.94 "Hg10 mi
10:51 AM64 °FMostly cloudy.12 mph52%29.94 "Hg10 mi
9:51 AM61 °FPartly sunny.7 mph65%29.96 "Hg10 mi
8:51 AM59 °FBroken clouds.3 mph67%29.96 "Hg10 mi
7:51 AM55 °FBroken clouds.No wind77%29.96 "Hg10 mi
6:51 AM55 °FPassing clouds.3 mph77%29.96 "Hg10 mi
5:51 AM54 °FOvercast.No wind80%29.95 "Hg10 mi
4:51 AM56 °FOvercast.No wind77%29.95 "Hg10 mi
3:51 AM55 °FOvercast.No wind77%29.96 "Hg10 mi
3:02 AM55 °FPassing clouds.No wind77%29.97 "Hg10 mi
2:51 AM55 °FPassing clouds.3 mph77%29.96 "Hg10 mi
1:51 AM56 °FClear.No wind77%29.96 "Hg10 mi
12:51 AM57 °FOvercast.No wind74%29.98 "Hg10 mi
11:51 PM
Fri, Apr 24
58 °FPassing clouds.No wind72%29.98 "Hg10 mi
11:00 PM59 °FMostly cloudy.5 mph69%30.00 "Hg10 mi
9:51 PM59 °FOvercast.6 mph72%29.99 "Hg10 mi
8:58 PM60 °FMostly cloudy.6 mph67%29.99 "Hg10 mi
7:51 PM60 °FOvercast.5 mph67%29.96 "Hg10 mi
6:51 PM62 °FOvercast.7 mph62%29.96 "Hg10 mi
5:51 PM62 °FOvercast.3 mph60%29.96 "Hg10 mi
4:51 PM62 °FOvercast.8 mph62%29.96 "Hg10 mi
Weather by CustomWeather, © 2015

See weather overviewHow to use our weather pages